Location: Kellogg
(38.0159°N, 90.0546°W)
Time: 20:22:17
(UTC+00:00)

Vanguard 1 - Pass Details

Date: 20 September 2024
Orbit: 648 x 3825 km, 34.3° (Epoch: 11 October)

Event Time Altitude Azimuth Distance (km) Brightness Sun altitude
Rises 19:07:28 0° 263° (W) 6,507 14.6 49.0°
Reaches altitude 10° 19:12:30 10° 262° (W) 4,985 14.2 48.5°
Maximum altitude 19:25:01 71° 182° (S) 1,502 12.3 47.1°
Drops below altitude 10° 19:31:39 10° 100° (E) 2,770 12.3 46.4°
Sets 19:33:43 0° 97° (E) 3,503 12.7 46.1°
